Location: Recife
(8.0585°S, 34.8848°W)
Time: 22:46:32
(UTC-03:00)

A-11 Canister half - Pass Details

Date: 18 April 2026
Orbit: 1523 x 1684 km, 47.3° (Epoch: 19 May)

Event Time Altitude Azimuth Distance (km) Brightness Sun altitude
Rises 19:58:24 0° 223° (SW) 4,725 11.9 -40.6°
Reaches altitude 10° 20:01:26 10° 223° (SW) 3,757 11.3 -41.3°
Enters shadow 20:08:08 52° 231° (SW) 1,909 9.5 -42.9°
